NOAA 16 DEB, 41138

Orbit data source: Space-Track

NOAA 16 DEB, 41138 is space debris in SSO originally from a launch on Thu, 21 Sep 2000 UTC launched from the Air Force Western Test Range (AFWTR). Debris objects in space refer to the collection of defunct objects orbiting the Earth. Examples of debris include non-operational satellites, rocket bodies, and fragments generated from explosions, collisions, or faulty payload assembly.

Loading next visibility...
Identifier
41138, 2000-055BV
Orbit
SSO
Country
Flag of USUS
Related business
Manufacturer
Unknown
Mission
Spacecraft
Bus & Motor
Unknown
Mass
Unknown
Launch date (UTC)
2000-09-21 (26 years ago)
Launch vehicle
Unknown
Launch site
Air Force Western Test Range (AFWTR)
Object type
Payload
Rocket body
Debris
Shape & HBR
Unknown shape, 0.1 m
Radar Cross Section
Small (<0.1 m²)

Expand to show TLE details & history
Last TLE update: 2 days ago

TLE from 2 days ago
0 NOAA 16 DEB
1 41138U 00055BV  26171.20247652 -.00000159  00000-0 -47304-4 0  9991
2 41138  98.7028 256.5209 0010410  22.6745 337.4894 14.26704578544706
Epoch: 2026-06-20T04:51Z
TLE epoch observation values (Epoch: 2026-06-20T04:51:33.971Z)
Latitude
0.00007°
Longitude
-84.79114°
Altitude
798.785 km
Speed
7.458 km/s
True Right ascension
17h 06m 05s
True Declination
0° 00' 00"
Sunlit
Object was in full shadow at epoch
Visualization orbit readout
Latitude
Unknown
Longitude
Unknown
Altitude
Unknown
Speed
Unknown
Apparent Right ascension
Unknown
Apparent Declination
Unknown
Sunlit
N/A
Visualization observer readout
Local Sidereal Time
21:45:14
Azimuth
Unknown
Elevation
Unknown
Doppler factor
Unknown
Orbital elements
Apogee altitude
807.389 km
Perigee altitude
792.444 km
Semi-major axis
7,178.054 km
Eccentricity
0.00104
Inclination
98.7028°
RAAN
256.5209°
Arg. of periapsis
22.6745°
True anomaly
337.44367°
Mean anomaly
337.4894°
Eccentric anomaly
337.46654°
Mean motion
3.56889 °/min
Orbital period
100.87 mins
BSTAR
-0.000047304
Loading maneuver chart data...
Computing Atmospheric mass density...
Loading historical data...
Loading historical data...
Loading historical data...
Loading historical data...
Loading historical data...
Loading historical data...
Loading historical data...

Documentation

Showing up to 5 results
|